Location: Coed Ely
(51.5661°N, 3.4150°W)
Time: 02:09:38
(UTC+00:00)

HJ-1C - Pass Details

Date: 28 January 2021
Orbit: 428 x 442 km, 97.1° (Epoch: 24 February)

Event Time Altitude Azimuth Distance (km) Brightness Sun altitude
Exits shadow 19:19:20 39° 196° (SSW) 683 4.4 -22.1°
Maximum altitude 19:20:21 61° 259° (W) 511 3.8 -22.3°
Drops below altitude 10° 19:23:42 10° 341° (NNW) 1,579 6.4 -22.8°
Sets 19:25:46 0° 345° (NNW) 2,455 7.3 -23.1°
